Regional Weather Roundup
Issued by NWS

Home | Current Version | Previous Version | Graphics & Text | Print | Product List | Glossary Off
Versions: 1 2 3 4 5 6 7 8 9 10 11 12 13 14 15 16 17 18 19 20 21 22 23 24 25 26 27 28 29 30 31 32 33 34 35 36 37 38 39 40 41 42 43 44 45 46 47 48 49 50

000
ASUS43 KTOP 230959
RWRKS

WEATHER ROUNDUP FOR KANSAS
NATIONAL WEATHER SERVICE GOODLAND KS
400 AM CST SUN NOV 23 2014

NOTE:  "FAIR" INDICATES FEW OR NO CLOUDS BELOW 12,000 FEET WITH NO
SIGNIFICANT WEATHER AND/OR OBSTRUCTIONS TO VISIBILITY.

KSZ001>006-013>018-027>032-041>047-231100-
NORTHWEST KANSAS

CITY           SKY/WX    TMP DP  RH WIND       PRES   REMARKS
GOODLAND       CLOUDY    50  31  48 N28G41    29.52R
HAYS           CLOUDY    52  43  71 S3        29.44S
HILL CITY      CLOUDY    47  45  93 CALM      29.45S
RUSSELL        CLOUDY    52  48  86 S10       29.42F
$$

KSZ061>065-074>080-084>089-231100-
SOUTHWEST KANSAS

CITY           SKY/WX    TMP DP  RH WIND       PRES   REMARKS
DODGE CITY     MOCLDY    47  44  90 S15       29.40S
ELKHART          N/A    N/A N/A N/A MISG        N/A
GARDEN CITY    PTCLDY    39  39 100 SW6       29.38F FOG
GREAT BEND     CLOUDY    52  46  82 S7        29.44S
LIBERAL        PTCLDY    37  32  81 CALM      29.41F
$$

KSZ066>073-081>083-090>101-231100-
SOUTHEAST KANSAS

CITY           SKY/WX    TMP DP  RH WIND       PRES   REMARKS
CHANUTE        CLOUDY    55  54  96 S9        29.57F
COFFEYVILLE    CLOUDY    56  54  93 S13       29.58S
HUTCHINSON     CLOUDY    53  50  89 S9        29.45F
MEDICINE LODGE   N/A     52  50  93 SE5       29.43F
NEWTON         CLOUDY    54  48  82 S17G23    29.49F
PARSONS        CLOUDY    57  55  93 S10       29.58F
WICHITA INTL   CLOUDY    55  52  89 S13       29.47F
WICHITA JABRA  CLOUDY    54  52  93 S10       29.48F
WICHITA MCCONL CLOUDY    54  54 100 S14       29.48F
WINFIELD       CLOUDY    55  53  93 S14       29.52F
$$

KSZ007>012-019>026-033>040-048>060-102>105-231100-
NORTHEAST KANSAS

CITY           SKY/WX    TMP DP  RH WIND       PRES   REMARKS
CONCORDIA      CLOUDY    53  51  93 S5        29.47F
EMPORIA        CLOUDY    54  53  97 S12G21    29.51F FOG
LAWRENCE       CLOUDY    52  50  93 SE7       29.56F
MANHATTAN      CLOUDY    55  54  96 S7        29.48F
OLATHE IND     CLOUDY    53  51  93 SE9       29.58F
OLATHE EXE     CLOUDY    52  51  97 SE12      29.57F
SALINA         CLOUDY    54  50  86 S13       29.45F
TOPEKA BILLARD CLOUDY    55  54  96 SE9       29.54F
TOPEKA FORBES  CLOUDY    56  52  86 S8        29.53F
$$


USA.gov is the U.S. government's official web portal to all federal, state and local government web resources and services.